User: anonymous   Login
Location: Spradlin Observatory
(33.4706°N, 86.3221°W)
Time: 15:02:43
(UTC-06:00)
Language:

COSMOS 2406 - Orbit

View from above orbital plane
View from above orbital plane
View from above satellite
View from above satellite

Ground track
Ground track

The orbit data is extracted from the following two-line orbital elements,

1 28352U 04021A   14326.87314034 -.00000014  00000-0  18383-4 0  4463
2 28352 071.0057 281.3610 0011856 071.6239 353.7998 14.11382051538592
Epoch (UTC): 22 November 2014 20:57:19
Eccentricity: 0.0011856
inclination: 71.0057°
perigee height: 846 km
apogee height: 863 km
right ascension of ascending node: 281.3610°
argument of perigee: 71.6239°
revolutions per day: 14.11382051
mean anomaly at epoch: 353.7998°
orbit number at epoch: 53859

The dashed part of the orbit path shows where the satellite is in the earth's shadow,  

DLR